Kristiansand, Norway

8:16 PM CET on February 06, 2016 (GMT +0100)
Kjevik

Weather History for ENCN - October, 2012

Change the Weather History Date:

Thursday, October 25, 2012

  Actual Average Record
Temperature  
Mean Temperature 40 °F -  
Max Temperature 46 °F 43 °F 54 °F (2014)
Min Temperature 33 °F 34 °F 28 °F (1997)
Degree Days  
Heating Degree Days 26    
Moisture  
Dew Point 23 °F    
Average Humidity 50    
Maximum Humidity 81    
Minimum Humidity 24    
Precipitation  
Precipitation 0.00 in - - ()
Sea Level Pressure  
Sea Level Pressure 29.81 in    
Wind  
Wind Speed 6 mph ()    
Max Wind Speed 18 mph    
Max Gust Speed 31 mph    
Visibility 6.2 miles    
Events Rain    
Averages and records for this station are not official NWS values.
T = Trace of Precipitation, MM = Missing Value Source: Averaged Metar Reports

Daily Weather History Graph

Daily Weather History Graph

Search for Another Location

Airport or City:

Trip Planner

Search our weather history database for the weather conditions in past years. The results will help you decide how hot, cold, wet, or windy it might be!

Date:

Astronomy

Oct. 25, 2012 Rise Set
Actual Time 8:26 AM CEST 5:55 PM CEST
Civil Twilight 7:45 AM CEST 6:36 PM CEST
Nautical Twilight 6:59 AM CEST 7:22 PM CEST
Astronomical Twilight 6:13 AM CEST 8:08 PM CEST
Moon 4:16 PM CEST (10/25) 3:16 AM CEST (10/25)
Length of Visible Light 10h 51m
Length of Day
9h 28m
Waxing Gibbous, 82% of the Moon is Illuminated
Oct 25
Waxing Gibbous
Oct 29
Full
Nov 7
Last Quarter
Nov 13
New
Nov 20
First Quarter

Hourly Weather History & Observations

Time (CEST) Temp. Windchill Dew Point Humidity Pressure Visibility Wind Dir Wind Speed Gust Speed Precip Events Conditions
12:20 AM 44.6 °F 40.2 °F 32.0 °F 61% 29.95 in 6.2 mi NW 8.1 mph - N/A   Unknown
12:50 AM 39.2 °F 37.0 °F 32.0 °F 75% 29.95 in 6.2 mi NNE 3.5 mph - N/A   Unknown
1:20 AM 37.4 °F - 32.0 °F 81% 29.95 in 6.2 mi ENE 2.3 mph - N/A   Partly Cloudy
1:50 AM 41.0 °F 39.0 °F 30.2 °F 65% 29.92 in 6.2 mi North 3.5 mph - N/A   Scattered Clouds
2:00 AM 41 °F - 29 °F 52% 29.94 in - North 6.7 mph - -  
2:20 AM 41.0 °F 35.8 °F 28.4 °F 61% 29.92 in 6.2 mi NNW 8.1 mph - N/A   Overcast
2:50 AM 41.0 °F 35.8 °F 28.4 °F 61% 29.92 in 6.2 mi NW 8.1 mph - N/A   Overcast
3:20 AM 41.0 °F - 28.4 °F 61% 29.89 in 6.2 mi East 1.2 mph - N/A   Mostly Cloudy
3:50 AM 39.2 °F - 28.4 °F 65% 29.89 in 6.2 mi East 2.3 mph - N/A   Overcast
4:20 AM 41.0 °F 38.0 °F 28.4 °F 61% 29.89 in 6.2 mi WNW 4.6 mph - N/A   Overcast
4:50 AM 41.0 °F 39.0 °F 28.4 °F 61% 29.86 in 6.2 mi West 3.5 mph - N/A   Mostly Cloudy
5:20 AM 41.0 °F - 28.4 °F 61% 29.86 in 6.2 mi Variable 2.3 mph - N/A   Partly Cloudy
5:50 AM 41.0 °F - 26.6 °F 57% 29.86 in - Variable 1.2 mph - N/A   Clear
6:20 AM 41.0 °F 38.0 °F 26.6 °F 57% 29.83 in - NW 4.6 mph - N/A   Clear
6:50 AM 41.0 °F 39.0 °F 26.6 °F 57% 29.83 in - West 3.5 mph - N/A   Clear
7:20 AM 41.0 °F 36.4 °F 26.6 °F 57% 29.83 in - NW 6.9 mph - N/A   Clear
7:50 AM 41.0 °F 38.0 °F 26.6 °F 57% 29.83 in - WNW 4.6 mph - N/A   Clear
8:00 AM 41 °F - 27 °F 45% 29.83 in - West 2.2 mph - -  
8:20 AM 41.0 °F 37.1 °F 28.4 °F 61% 29.80 in - WSW 5.8 mph - N/A   Clear
8:50 AM 41.0 °F 37.1 °F 28.4 °F 61% 29.80 in - SSW 5.8 mph - N/A   Clear
9:20 AM 41.0 °F 39.0 °F 28.4 °F 61% 29.80 in - Variable 3.5 mph - N/A   Clear
9:50 AM 41.0 °F 38.0 °F 30.2 °F 65% 29.80 in - West 4.6 mph - N/A   Clear
10:20 AM 41.0 °F 38.0 °F 30.2 °F 65% 29.77 in - West 4.6 mph - N/A   Clear
10:50 AM 41.0 °F 35.8 °F 30.2 °F 65% 29.77 in - WSW 8.1 mph - N/A   Clear
11:20 AM 41.0 °F 36.4 °F 30.2 °F 65% 29.77 in 6.2 mi SW 6.9 mph - N/A   Scattered Clouds
11:50 AM 42.8 °F 37.5 °F 30.2 °F 61% 29.74 in 6.2 mi WSW 9.2 mph - N/A   Partly Cloudy
12:20 PM 44.6 °F 38.1 °F 32.0 °F 61% 29.74 in 6.2 mi WSW 13.8 mph - N/A   Partly Cloudy
12:50 PM 46.4 °F 41.1 °F 26.6 °F 46% 29.71 in 6.2 mi WNW 11.5 mph - N/A   Partly Cloudy
1:20 PM 46.4 °F 41.5 °F 24.8 °F 43% 29.71 in 6.2 mi WNW 10.4 mph - N/A   Partly Cloudy
1:50 PM 46.4 °F 39.8 °F 21.2 °F 37% 29.71 in - NW 16.1 mph 27.6 mph N/A   Clear
2:00 PM 46 °F - 21 °F 24% 29.72 in - NW 15.7 mph - -  
2:20 PM 46.4 °F 40.1 °F 23.0 °F 40% 29.71 in - NW 15.0 mph - N/A   Clear
2:50 PM 44.6 °F 37.4 °F 24.8 °F 46% 29.71 in 6.2 mi WNW 16.1 mph - N/A Rain Light Rain Showers
3:20 PM 42.8 °F 36.6 °F 26.6 °F 53% 29.71 in 6.2 mi WNW 11.5 mph - N/A   Partly Cloudy
3:50 PM 42.8 °F 36.6 °F 23.0 °F 46% 29.68 in 6.2 mi WNW 11.5 mph - N/A   Partly Cloudy
4:20 PM 44.6 °F 37.8 °F 19.4 °F 37% 29.68 in 6.2 mi WNW 15.0 mph - N/A   Partly Cloudy
4:50 PM 42.8 °F 37.0 °F 21.2 °F 42% 29.68 in 6.2 mi WNW 10.4 mph - N/A   Partly Cloudy
5:20 PM 41.0 °F 34.3 °F 23.0 °F 49% 29.71 in 6.2 mi WNW 11.5 mph - N/A   Partly Cloudy
5:50 PM 41.0 °F 33.1 °F 23.0 °F 49% 29.71 in 6.2 mi WNW 15.0 mph - N/A   Partly Cloudy
6:20 PM 41.0 °F 34.7 °F 23.0 °F 49% 29.71 in 6.2 mi WNW 10.4 mph - N/A   Partly Cloudy
6:50 PM 39.2 °F 33.0 °F 19.4 °F 45% 29.74 in 6.2 mi NW 9.2 mph - N/A   Partly Cloudy
7:20 PM 39.2 °F 29.8 °F 15.8 °F 39% 29.77 in 6.2 mi NW 18.4 mph 31.1 mph N/A   Partly Cloudy
7:50 PM 37.4 °F 30.3 °F 14.0 °F 38% 29.83 in 6.2 mi NNW 10.4 mph 21.9 mph N/A   Partly Cloudy
8:00 PM 37 °F - 13 °F 24% 29.84 in - North 8.9 mph - -  
8:20 PM 37.4 °F 30.3 °F 10.4 °F 33% 29.83 in - North 10.4 mph - N/A   Clear
8:50 PM 37.4 °F 31.4 °F 8.6 °F 30% 29.86 in - NNW 8.1 mph - N/A   Clear
9:20 PM 35.6 °F 28.0 °F 6.8 °F 30% 29.86 in - North 10.4 mph - N/A   Clear
9:50 PM 35.6 °F 28.0 °F 6.8 °F 30% 29.89 in - NNW 10.4 mph - N/A   Clear
10:20 PM 35.6 °F 30.7 °F 6.8 °F 30% 29.89 in - North 5.8 mph - N/A   Clear
10:50 PM 33.8 °F 29.6 °F 8.6 °F 35% 29.92 in - North 4.6 mph - N/A   Clear
11:20 PM 33.8 °F 28.6 °F 8.6 °F 35% 29.92 in - WNW 5.8 mph - N/A   Clear
11:50 PM 33.8 °F 30.8 °F 8.6 °F 35% 29.89 in - NNW 3.5 mph - N/A   Clear